Temp
1 1 1 1 1 0 0 0 -0 -1 -1 -1 -1 -3 -4 -4 -4 -4 -4 -3 -3 -3 -3 -2 -2 -3 -3 -3 -3 -2 -3 -4 -4 -4 -4 -4 -3 -3 -3 -2 -3 -2 -2 -0
1 1 1 1 1 1 1 0 0 -0 -1 -1 -1 -3 -4 -4 -4 -4 -4 -3 -3 -3 -3 -2 -2 -3 -3 -3 -3 -3 -3 -4 -4 -4 -4 -4 -4 -3 -3 -2 -2 -1 -3 0
1 1 1 1 1 1 1 1 0 -0 -0 -1 -2 -2 -4 -4 -5 -4 -4 -4 -3 -3 -3 -2 -2 -2 -2 -2 -2 -2 -2 -2 -2 -2 -1 -2 -3 -3 -3 -2 -2 -1 -1 1
0 0 0 0 -0 0 0 0 0 0 -1 -1 -1 -2 -3 -4 -5 -4 -4 -4 -4 -3 -3 -3 -2 -2 -2 -2 -2 -2 -2 -1 -2 -2 -2 -2 -1 -1 -2 -3 -2 -1 -0 0
-0 -0 -1 -1 -1 -1 -1 -0 -0 -0 -1 -2 -2 -2 -3 -3 -5 -5 -4 -4 -4 -3 -4 -3 -2 -2 -2 -2 -2 -2 -2 -2 -2 -2 -2 -2 -2 -2 -2 -2 -2 -2 -1 -0
-1 -0 -1 -1 -1 -2 -2 -1 -1 -0 -0 -2 -3 -3 -3 -4 -5 -4 -4 -4 -4 -4 -4 -4 -3 -3 -3 -3 -3 -3 -3 -2 -2 -2 -3 -3 -3 -0 -1 -1 -1 -1 -2 -0
-0 -0 -0 -1 -1 -2 -2 -2 -2 -2 -3 -5 -5 -6 -6 -6 -5 -5 -4 -5 -5 -4 -4 -4 -4 -4 -4 -4 -3 -3 -3 -3 -3 -3 -3 -5 -1 -1 -1 -1 -1 -1 -2 -1
-0 -0 -0 -1 -2 -2 -3 -3 -4 -5 -5 -6 -6 -6 -7 -6 -6 -5 -5 -5 -5 -5 -4 -4 -4 -4 -4 -4 -4 -4 -4 -4 -3 -3 -4 -2 -1 -1 -1 -1 -1 -1 -1 -2
0 -0 -0 -2 -2 -2 -3 -5 -6 -7 -7 -8 -8 -8 -7 -7 -7 -6 -5 -5 -5 -5 -5 -4 -4 -4 -3 -4 -4 -5 -4 -4 -4 -4 -4 -4 -2 -2 -2 -2 -2 -1 -2 -2
-0 -0 -1 -1 -1 -2 -5 -7 -8 -8 -8 -8 -9 -9 -9 -8 -8 -8 -5 -5 -5 -5 -5 -5 -4 -4 -4 -3 -4 -4 -4 -4 -4 -4 -4 -3 -2 -2 -3 -3 -2 -2 -2 -2
-0 -0 -1 -1 -2 -3 -8 -8 -8 -8 -8 -8 -9 -9 -9 -10 -10 -8 -7 -5 -5 -5 -5 -5 -4 -4 -4 -4 -3 -3 -3 -4 -4 -4 -4 -4 -3 -3 -3 -2 -2 -3 -2 -2
-0 -1 -1 -2 -3 -6 -9 -8 -8 -8 -8 -7 -8 -8 -9 -9 -9 -9 -7 -6 -5 -5 -5 -5 -4 -4 -4 -4 -4 -4 -4 -4 -4 -4 -4 -3 -3 -3 -3 -3 -3 -3 -2 -3
-1 -1 -1 -2 -3 -8 -8 -8 -9 -8 -8 -7 -8 -9 -9 -9 -10 -8 -7 -7 -6 -6 -5 -5 -5 -4 -4 -4 -4 -4 -4 -4 -4 -4 -3 -3 -3 -3 -3 -3 -3 -3 -3 -3
-1 -1 -1 -2 -4 -7 -8 -8 -9 -9 -9 -9 -7 -8 -8 -7 -8 -9 -8 -7 -7 -6 -6 -5 -5 -5 -5 -5 -4 -4 -4 -4 -4 -4 -4 -3 -3 -3 -4 -4 -4 -4 -3 -3
-1 -1 -1 -3 -6 -8 -8 -9 -9 -9 -9 -8 -7 -7 -8 -8 -7 -7 -8 -8 -7 -7 -7 -7 -6 -6 -5 -5 -5 -4 -4 -4 -4 -4 -4 -3 -3 -4 -4 -4 -4 -4 -4 -4
-1 -1 -3 -5 -6 -7 -7 -8 -8 -8 -8 -9 -8 -8 -8 -8 -7 -7 -7 -8 -9 -7 -7 -7 -7 -6 -6 -5 -5 -4 -4 -4 -4 -4 -4 -4 -4 -4 -4 -4 -4 -4 -4 -4
-2 -3 -5 -6 -6 -7 -8 -9 -8 -8 -8 -9 -7 -7 -8 -8 -8 -8 -8 -7 -8 -8 -7 -7 -7 -6 -6 -6 -6 -4 -4 -4 -4 -4 -4 -4 -4 -4 -4 -4 -4 -4 -4 -4
-3 -4 -5 -6 -7 -8 -8 -8 -8 -8 -8 -8 -8 -8 -8 -8 -8 -8 -8 -8 -8 -8 -8 -7 -7 -6 -7 -6 -5 -4 -4 -4 -4 -4 -4 -4 -4 -4 -4 -4 -4 -4 -4 -4
-4 -5 -5 -6 -7 -7 -8 -8 -8 -8 -8 -8 -8 -8 -8 -8 -8 -8 -8 -8 -8 -8 -8 -7 -7 -7 -7 -6 -5 -4 -4 -5 -4 -4 -4 -4 -4 -4 -4 -4 -4 -4 -5 -4
-5 -5 -6 -6 -7 -8 -8 -8 -8 -7 -7 -7 -8 -8 -8 -8 -8 -7 -8 -7 -7 -7 -7 -7 -8 -7 -5 -5 -5 -5 -5 -5 -5 -5 -5 -5 -6 -5 -5 -5 -6 -7 -7 -5
-6 -6 -6 -7 -8 -9 -9 -9 -8 -8 -7 -7 -8 -8 -8 -8 -8 -8 -7 -7 -7 -7 -7 -7 -7 -6 -5 -5 -5 -5 -5 -5 -5 -5 -7 -6 -6 -6 -6 -6 -6 -7 -6 -5
-6 -6 -6 -7 -9 -9 -9 -9 -8 -8 -8 -8 -8 -8 -8 -8 -8 -8 -7 -7 -7 -6 -7 -7 -6 -5 -5 -5 -5 -6 -6 -6 -5 -5 -6 -6 -7 -7 -7 -7 -6 -5 -5 -5
-6 -7 -7 -8 -8 -9 -8 -8 -8 -8 -9 -9 -8 -8 -8 -7 -7 -7 -7 -6 -6 -6 -6 -6 -6 -6 -6 -6 -6 -6 -5 -6 -6 -6 -6 -6 -6 -6 -6 -6 -6 -6 -5 -5
-7 -8 -8 -8 -8 -8 -8 -8 -8 -8 -9 -9 -8 -8 -8 -7 -7 -7 -7 -7 -6 -6 -7 -6 -6 -6 -5 -6 -6 -6 -6 -6 -6 -6 -6 -6 -6 -6 -6 -6 -6 -7 -6 -6
-8 -8 -8 -8 -8 -8 -8 -8 -8 -8 -8 -9 -9 -8 -8 -8 -7 -7 -7 -7 -7 -7 -6 -7 -6 -6 -6 -6 -6 -6 -7 -6 -6 -6 -6 -6 -6 -6 -6 -6 -6 -6 -6 -6
-9 -9 -8 -8 -8 -8 -8 -8 -8 -8 -8 -8 -9 -9 -9 -8 -8 -8 -7 -7 -7 -7 -7 -7 -7 -7 -6 -6 -6 -6 -7 -7 -7 -7 -7 -6 -6 -6 -7 -7 -6 -6 -6 -6
-9 -8 -8 -8 -9 -9 -8 -8 -9 -9 -9 -9 -9 -9 -9 -8 -8 -8 -8 -7 -7 -7 -7 -7 -7 -7 -7 -6 -6 -7 -7 -7 -7 -7 -7 -7 -7 -7 -7 -7 -6 -6 -6 -6
Height
3092 3086 3080 3076 3071 3065 3062 3057 3054 3051 3048 3046 3040 3038 3036 3036 3034 3032 3029 3028 3026 3023 3021 3020 3021 3019 3019 3021 3023 3024 3025 3027 3033 3037 3040 3043 3044 3045 3048 3050 3051 3049 3049 3044
3092 3087 3081 3077 3072 3067 3062 3058 3054 3050 3047 3043 3041 3039 3037 3035 3034 3032 3030 3027 3028 3026 3022 3022 3021 3021 3023 3023 3024 3025 3026 3029 3033 3039 3040 3039 3038 3040 3044 3046 3046 3044 3046 3042
3091 3087 3082 3078 3072 3068 3063 3058 3053 3048 3046 3043 3039 3037 3035 3034 3032 3032 3029 3027 3025 3026 3024 3022 3021 3022 3024 3024 3025 3026 3027 3027 3028 3029 3028 3030 3033 3035 3038 3041 3041 3039 3037 3039
3089 3086 3082 3078 3073 3068 3063 3059 3054 3048 3044 3039 3038 3035 3033 3031 3031 3030 3029 3027 3025 3025 3025 3023 3022 3022 3022 3024 3024 3025 3026 3025 3025 3025 3026 3027 3029 3031 3033 3033 3035 3036 3037 3037
3086 3083 3080 3075 3069 3065 3062 3058 3053 3046 3040 3036 3033 3032 3031 3027 3027 3026 3026 3025 3023 3022 3023 3024 3021 3021 3021 3021 3023 3023 3024 3024 3024 3024 3025 3026 3026 3027 3028 3029 3031 3033 3034 3034
3082 3079 3074 3070 3065 3060 3055 3053 3048 3042 3035 3030 3027 3026 3021 3021 3022 3023 3021 3022 3020 3020 3019 3020 3021 3020 3020 3020 3021 3021 3022 3023 3024 3025 3025 3025 3025 3021 3022 3023 3024 3027 3029 3032
3078 3073 3069 3063 3059 3054 3051 3047 3042 3036 3032 3027 3023 3018 3015 3015 3017 3017 3019 3019 3017 3018 3016 3017 3019 3018 3018 3018 3018 3019 3020 3022 3024 3024 3024 3025 3018 3017 3018 3019 3021 3022 3024 3027
3073 3068 3063 3058 3053 3048 3043 3038 3034 3030 3025 3020 3021 3017 3015 3014 3011 3012 3014 3015 3015 3013 3015 3015 3018 3018 3017 3016 3016 3017 3019 3020 3021 3022 3021 3018 3016 3015 3016 3016 3016 3017 3018 3023
3069 3063 3058 3053 3048 3042 3035 3031 3026 3023 3019 3015 3014 3010 3010 3009 3009 3009 3009 3012 3012 3011 3013 3012 3014 3015 3014 3015 3014 3014 3016 3018 3021 3020 3020 3017 3015 3014 3014 3014 3013 3013 3015 3018
3065 3059 3053 3047 3041 3034 3029 3025 3023 3020 3014 3012 3009 3005 3004 3005 3005 3005 3004 3007 3009 3009 3010 3011 3011 3012 3013 3012 3012 3012 3013 3016 3017 3017 3016 3013 3013 3013 3014 3016 3019 3013 3013 3015
3059 3054 3048 3041 3035 3027 3024 3021 3018 3016 3010 3008 3003 3000 2999 2998 2999 3001 3003 3005 3006 3007 3007 3010 3010 3010 3011 3010 3010 3010 3011 3012 3013 3015 3016 3015 3011 3013 3015 3015 3013 3013 3013 3015
3053 3050 3043 3034 3027 3021 3019 3019 3015 3011 3007 3004 2995 2992 2992 2992 2995 2996 2998 2999 3001 3004 3004 3007 3007 3008 3008 3009 3008 3008 3010 3010 3011 3012 3011 3011 3011 3012 3012 3013 3014 3013 3014 3015
3048 3044 3037 3029 3022 3018 3016 3015 3011 3007 3001 2999 2994 2988 2990 2990 2989 2991 2993 2997 2997 2999 3001 3002 3004 3006 3007 3007 3007 3007 3007 3008 3009 3010 3009 3009 3009 3010 3010 3011 3012 3013 3013 3014
3042 3037 3031 3022 3015 3011 3011 3010 3007 3004 2999 2991 2993 2988 2985 2981 2983 2984 2988 2991 2994 2996 2997 2998 3000 3003 3005 3005 3006 3005 3006 3006 3006 3006 3006 3007 3007 3008 3009 3010 3011 3011 3012 3012
3036 3031 3023 3015 3010 3006 3006 3005 3003 2998 2997 2990 2985 2983 2981 2978 2977 2979 2981 2986 2989 2992 2993 2995 2997 2998 3001 3001 3002 3000 3002 3002 3003 3003 3003 3003 3005 3006 3006 3008 3008 3009 3009 3010
3029 3023 3016 3011 3006 3005 3003 3002 2998 2993 2989 2987 2982 2981 2978 2975 2972 2973 2976 2981 2985 2987 2990 2992 2993 2995 2998 2997 2996 2998 2999 2998 2998 2999 3000 3001 3002 3003 3004 3005 3005 3006 3006 3006
3022 3017 3011 3009 3007 3003 3000 2998 2993 2988 2984 2981 2974 2980 2978 2976 2973 2972 2975 2977 2980 2983 2985 2986 2988 2992 2993 2991 2991 2995 2996 2996 2996 2996 2997 2997 2998 2999 3000 3000 3001 3001 3001 3001
3016 3011 3008 3007 3003 2999 2995 2992 2989 2986 2985 2983 2984 2980 2978 2978 2977 2975 2975 2976 2978 2980 2981 2983 2984 2987 2988 2984 2986 2991 2992 2992 2992 2993 2993 2994 2994 2995 2995 2995 2995 2995 2994 2994
3009 3006 3005 3003 3000 2996 2993 2989 2987 2986 2988 2985 2987 2987 2982 2981 2979 2977 2977 2977 2977 2978 2977 2979 2982 2979 2979 2981 2984 2987 2987 2988 2989 2989 2989 2989 2989 2989 2990 2990 2989 2988 2987 2987
3005 3004 3003 2999 2997 2992 2990 2988 2987 2984 2986 2987 2986 2987 2985 2984 2980 2978 2979 2976 2976 2975 2975 2975 2973 2970 2974 2978 2979 2981 2982 2983 2983 2984 2984 2984 2983 2984 2983 2983 2982 2981 2980 2979
3002 3001 3000 2997 2993 2990 2987 2986 2986 2984 2983 2984 2986 2985 2983 2980 2978 2978 2978 2975 2974 2972 2973 2972 2969 2967 2969 2971 2973 2974 2976 2977 2977 2977 2977 2976 2976 2976 2976 2976 2975 2974 2972 2971
2998 2998 2997 2994 2991 2989 2988 2986 2982 2985 2985 2981 2980 2981 2980 2978 2977 2976 2976 2973 2972 2970 2970 2970 2967 2966 2966 2966 2967 2968 2969 2970 2971 2971 2970 2970 2969 2969 2968 2968 2967 2966 2965 2965
2993 2995 2994 2992 2991 2988 2987 2985 2982 2982 2984 2984 2984 2980 2979 2977 2977 2975 2974 2972 2970 2969 2968 2967 2966 2965 2964 2964 2963 2964 2965 2966 2967 2966 2966 2966 2965 2965 2964 2963 2961 2960 2959 2958
2991 2991 2992 2991 2986 2984 2984 2983 2984 2985 2984 2985 2983 2981 2980 2978 2977 2974 2972 2971 2969 2968 2967 2966 2965 2963 2961 2960 2960 2961 2962 2963 2964 2964 2965 2964 2964 2963 2962 2960 2959 2957 2955 2953
2987 2987 2987 2985 2984 2983 2983 2983 2981 2981 2981 2982 2983 2979 2977 2976 2976 2973 2972 2970 2967 2966 2965 2964 2963 2962 2960 2960 2960 2960 2961 2962 2963 2964 2964 2964 2963 2962 2961 2959 2958 2956 2954 2952
2983 2981 2981 2982 2983 2982 2981 2980 2980 2979 2976 2978 2979 2977 2975 2974 2973 2972 2970 2969 2967 2966 2964 2964 2963 2962 2961 2962 2961 2961 2962 2962 2962 2962 2962 2962 2961 2959 2959 2958 2956 2954 2952 2950
2976 2975 2976 2977 2978 2979 2977 2976 2975 2977 2975 2975 2976 2975 2974 2972 2970 2969 2968 2968 2967 2965 2964 2963 2964 2964 2963 2963 2962 2962 2962 2962 2961 2961 2960 2959 2958 2957 2956 2955 2953 2951 2949 2947
Wind_Speed
32 34 34 32 29 30 28 23 18 21 19 15 13 10 10 10 13 7 7 6 10 12 10 5 3 2 3 15 15 10 4 14 14 13 12 21 26 20 25 10 7 7 2 5
28 29 32 34 38 38 31 33 29 24 17 19 19 8 4 9 10 7 5 3 6 6 9 2 4 6 13 7 8 5 11 12 12 8 8 15 21 25 27 27 9 20 6 5
21 22 26 31 35 35 32 31 29 28 25 24 21 19 9 4 9 4 4 3 2 2 5 4 5 12 8 6 6 7 5 18 8 9 7 19 26 22 27 29 13 8 22 13
17 20 23 25 30 33 35 34 28 28 20 18 20 18 14 6 6 5 4 4 6 3 4 1 5 7 9 7 6 5 4 9 7 6 5 9 14 20 24 32 26 12 12 14
19 20 24 28 28 31 31 28 30 30 22 18 18 19 16 12 5 7 7 8 8 4 6 8 4 7 6 5 6 8 7 5 7 5 6 6 9 15 22 26 26 26 13 14
24 28 31 33 34 35 32 27 26 25 26 20 17 18 15 11 11 7 8 9 10 9 7 9 8 7 7 6 5 6 8 7 8 3 5 6 11 20 21 25 30 30 26 18
29 33 36 37 38 40 39 30 27 28 25 18 18 18 20 15 13 13 7 9 8 6 4 6 5 6 8 9 9 7 7 8 7 4 5 2 3 3 6 15 19 22 26 20
30 33 37 40 41 44 37 32 32 33 33 35 26 24 15 14 12 13 9 8 8 7 8 6 5 6 3 7 7 12 11 11 4 4 7 10 10 10 9 10 10 20 20 25
29 35 41 42 44 46 40 34 31 29 31 29 27 25 22 14 9 13 11 10 6 10 10 8 6 5 5 4 2 6 14 12 11 6 3 4 1 3 4 8 11 9 17 21
30 37 43 48 52 52 42 30 26 27 31 28 29 29 20 15 12 13 10 13 10 10 9 7 6 5 5 5 5 6 8 12 13 9 4 6 7 5 4 3 4 6 10 18
32 38 46 50 52 52 38 28 27 30 33 24 29 28 21 11 13 16 12 11 13 10 9 5 5 6 7 6 7 5 5 7 9 9 5 7 5 6 8 3 3 2 4 11
34 40 47 53 52 45 31 26 29 29 32 32 23 15 10 17 17 18 13 16 8 12 9 9 7 6 5 7 4 8 5 8 7 8 5 3 3 3 7 7 3 2 6 7
36 40 46 50 47 35 25 25 26 30 33 29 22 11 12 17 13 21 20 16 20 10 9 12 8 7 6 7 10 9 8 8 11 8 8 10 10 9 5 6 7 6 6 6
37 41 48 48 41 30 21 21 24 30 30 26 30 23 25 22 16 19 26 16 22 26 23 10 13 11 8 10 11 11 10 10 10 13 16 13 8 4 6 7 7 7 7 9
37 43 45 39 32 21 16 21 22 24 28 33 30 16 17 16 14 18 18 21 19 22 25 23 19 19 16 17 18 22 16 17 17 14 9 9 11 8 6 9 9 10 11 12
37 36 35 28 18 13 13 21 20 25 28 28 27 13 11 14 10 13 22 20 19 19 22 20 20 16 13 9 14 8 2 4 7 15 19 16 10 11 10 10 13 15 15 14
31 27 19 13 14 12 11 16 24 23 19 18 12 5 10 13 15 3 9 23 24 25 24 30 19 15 19 21 25 18 10 11 10 8 10 15 18 19 19 20 18 16 17 19
23 18 8 8 14 13 16 19 18 15 13 11 7 7 8 13 5 8 3 9 17 17 20 23 23 24 24 22 21 16 12 13 10 10 12 15 17 18 19 21 22 25 25 24
17 13 10 12 15 16 15 13 9 9 8 6 8 16 11 17 5 2 4 6 9 10 18 20 16 20 14 9 16 18 20 13 11 11 13 13 15 17 17 18 23 23 21 20
12 11 13 14 13 14 11 8 5 5 8 8 9 15 19 20 13 4 5 6 7 5 9 11 20 29 24 24 23 22 23 21 18 20 19 21 21 21 23 24 24 24 24 23
14 11 14 12 14 10 4 2 2 4 4 5 9 15 24 24 11 7 4 3 4 4 5 7 5 16 16 18 23 26 28 26 25 23 22 21 21 23 26 28 29 29 28 26
16 13 15 14 7 3 3 2 1 1 2 5 8 16 22 15 6 3 5 5 5 4 5 6 4 6 7 8 10 14 17 18 18 19 19 18 18 18 20 21 20 21 21 21
14 15 12 6 4 5 3 4 3 2 3 5 12 13 18 10 5 5 4 4 4 3 5 3 4 5 8 9 9 10 9 11 12 12 8 8 8 9 11 13 13 16 18 21
14 12 9 6 5 4 3 4 7 7 10 15 17 17 11 12 8 4 4 4 3 3 3 2 6 8 6 7 5 7 6 7 6 5 3 1 2 4 6 6 8 9 11 13
13 7 6 9 8 7 8 8 9 11 11 12 11 10 8 9 6 4 5 3 3 3 1 2 1 2 4 3 2 3 4 6 6 4 1 1 3 3 6 7 8 9 9 9
11 10 9 9 9 8 6 6 9 11 10 11 10 4 4 4 5 4 4 4 2 5 2 0 3 4 4 3 3 3 2 2 1 2 5 7 8 8 8 11 12 13 14 14
11 10 13 16 17 16 16 12 10 13 12 10 8 5 5 4 5 4 4 4 6 5 3 4 3 4 5 6 5 4 3 4 6 8 9 10 11 11 12 13 14 15 16 17
Wind_Direction
46 45 42 39 33 27 19 15 7 2 3 5 9 27 17 12 9 25 28 59 32 27 25 46 75 204 139 131 134 144 152 161 150 187 216 210 211 211 204 204 201 206 214 280
39 37 41 40 39 35 31 26 18 6 357 352 355 354 6 350 348 14 8 40 6 8 17 68 86 132 148 148 140 166 141 144 127 165 184 188 205 219 219 219 228 219 190 241
22 29 30 28 24 19 19 20 19 13 357 347 342 343 345 332 322 307 313 313 297 320 1 59 135 154 160 159 150 154 179 171 196 192 185 199 206 208 209 209 215 223 223 248
22 17 13 14 12 12 14 12 10 8 0 347 332 329 326 312 302 247 294 257 294 280 285 291 158 186 186 195 185 189 208 195 181 158 156 180 211 216 206 209 214 236 247 236
356 0 2 4 9 2 6 1 358 349 348 346 330 321 312 301 276 262 233 256 263 252 264 262 218 197 197 206 214 223 225 201 198 203 214 224 231 221 224 227 228 233 240 226
348 346 349 354 354 354 349 349 338 341 327 320 311 300 290 280 277 262 241 288 263 261 274 262 251 242 214 232 236 222 217 223 200 233 211 252 263 234 225 227 230 231 227 232
338 341 342 343 344 345 342 331 317 308 310 305 297 279 274 273 252 259 228 270 276 260 248 207 229 234 230 237 237 226 213 204 197 184 184 247 233 227 224 243 242 236 230 222
337 337 337 338 339 338 331 324 318 316 309 311 316 301 277 268 255 233 251 266 277 216 187 181 212 220 260 222 239 230 217 208 202 216 220 284 266 257 256 250 253 227 227 214
334 335 333 334 336 334 329 327 326 325 323 322 325 299 279 287 283 242 223 242 238 186 213 214 213 217 218 203 215 225 216 215 214 203 232 233 217 262 251 238 265 236 220 211
329 330 328 331 330 328 331 338 339 334 322 328 320 300 280 251 268 268 234 227 211 227 223 247 205 231 211 209 204 196 212 213 224 225 258 281 249 258 219 204 303 253 232 210
326 324 326 326 327 326 331 337 338 333 325 328 323 311 299 282 256 245 220 230 231 233 222 228 226 231 219 232 219 220 212 192 208 224 241 263 235 211 204 267 281 298 160 200
320 325 326 324 324 324 316 320 323 331 328 332 324 335 306 287 243 217 223 214 176 213 198 216 220 233 214 230 227 219 224 214 207 214 232 269 265 280 238 236 262 229 210 190
318 324 320 319 317 311 294 328 317 332 325 343 12 329 330 325 282 238 237 222 220 228 226 217 222 220 236 241 237 232 232 248 234 246 256 265 262 279 256 228 237 265 273 276
319 319 317 315 314 313 290 309 313 326 328 325 335 329 310 295 264 245 220 237 224 225 227 249 245 243 257 258 257 255 251 251 251 254 253 263 241 225 229 238 248 256 269 261
317 317 317 321 318 309 286 288 317 320 331 325 342 345 317 301 277 242 235 218 222 224 232 234 241 250 264 261 266 265 265 265 255 260 270 257 254 262 250 248 258 265 270 265
315 314 319 329 334 338 317 309 321 321 330 328 336 6 355 341 299 244 223 224 230 236 224 228 233 232 242 257 258 278 311 350 264 259 252 254 251 253 261 267 274 276 278 271
314 323 334 341 328 327 333 314 322 320 327 330 344 11 15 2 14 225 230 219 227 235 232 226 219 221 237 254 254 259 284 294 280 269 259 251 254 261 266 273 277 273 280 279
317 326 321 342 329 324 315 315 319 326 328 355 353 352 14 18 13 19 234 218 224 235 243 242 239 238 242 262 262 268 260 270 268 272 263 261 262 268 271 273 276 279 279 275
316 311 289 302 313 335 339 328 333 345 358 4 353 351 347 353 5 244 250 200 238 240 238 242 241 236 231 264 259 265 269 260 265 277 275 267 267 271 268 273 282 286 280 273
303 285 289 313 322 330 335 330 349 33 51 38 25 3 357 351 346 254 251 236 225 241 257 248 238 237 245 246 254 260 269 277 274 287 276 273 270 268 265 276 278 279 278 270
292 277 302 307 315 315 311 299 14 35 62 30 2 352 343 342 325 280 258 270 228 244 243 206 249 253 264 263 256 258 262 268 273 278 276 268 265 257 258 266 271 274 276 277
275 279 298 306 304 278 243 255 123 63 35 352 340 344 340 340 326 285 253 250 234 249 216 200 253 290 295 271 247 243 248 258 268 274 277 272 269 268 267 269 273 275 277 276
264 278 302 290 268 248 242 229 206 180 283 287 311 335 343 336 309 264 266 249 255 242 202 233 272 306 313 301 262 250 252 251 250 264 272 283 281 280 278 280 281 279 277 271
270 281 271 263 236 236 239 266 267 273 280 294 295 300 310 318 312 298 278 267 249 246 241 251 285 298 293 322 239 243 239 235 239 219 189 170 19 3 358 348 334 321 310 295
253 249 248 250 250 251 264 277 282 284 286 294 306 301 287 289 275 267 284 262 256 237 274 225 316 4 212 47 125 194 192 181 177 185 201 301 311 327 342 343 339 334 330 329
240 236 242 267 261 250 260 281 299 301 298 285 291 299 273 256 252 254 259 284 324 339 202 228 54 49 75 74 81 121 145 172 162 308 294 298 310 326 334 331 329 329 333 336
234 244 256 257 252 260 274 280 289 284 275 276 263 245 243 255 252 245 236 253 305 328 230 177 141 114 88 68 51 32 359 319 305 310 316 320 318 316 315 316 317 317 315 310